Temp
-6 -6 -6 -5 -6 -5 -6 -6 -7 -7 -7 -7 -7 -6 -4 -4 -4 -5 -5 -5 -5 -5 -5 -5 -4 -4 -4 -4 -4 -4 -4 -4 -4 -4 -4 -4 -4 -4 -4 -4 -4 -4 -4 -4 -4 -4 -4 -4 -4
-6 -6 -6 -6 -5 -5 -7 -8 -7 -7 -7 -6 -7 -7 -5 -4 -4 -4 -5 -4 -5 -5 -6 -5 -5 -4 -4 -4 -4 -4 -4 -4 -4 -4 -4 -4 -4 -4 -4 -4 -4 -4 -4 -4 -4 -4 -4 -4 -4
-6 -6 -6 -5 -5 -5 -8 -8 -7 -8 -7 -7 -7 -7 -7 -6 -5 -4 -4 -4 -4 -5 -5 -5 -5 -5 -4 -4 -4 -4 -4 -4 -4 -4 -4 -4 -4 -5 -5 -5 -5 -4 -4 -4 -4 -4 -4 -4 -4
-5 -5 -5 -5 -5 -6 -7 -8 -7 -7 -7 -7 -8 -7 -7 -7 -5 -5 -5 -5 -5 -5 -5 -6 -6 -5 -4 -4 -4 -4 -4 -4 -4 -4 -4 -4 -5 -5 -5 -5 -5 -4 -4 -4 -4 -4 -4 -4 -4
-5 -5 -5 -4 -5 -5 -6 -7 -8 -7 -7 -7 -7 -7 -7 -6 -6 -5 -5 -5 -6 -6 -5 -6 -7 -6 -5 -5 -5 -4 -4 -4 -4 -4 -4 -4 -5 -5 -5 -5 -4 -4 -4 -4 -4 -4 -4 -4 -4
-5 -5 -4 -4 -5 -5 -6 -7 -7 -7 -7 -7 -7 -7 -7 -6 -6 -5 -6 -5 -6 -6 -6 -6 -7 -6 -6 -5 -5 -5 -5 -5 -5 -4 -4 -4 -5 -5 -5 -5 -5 -4 -4 -4 -4 -4 -4 -4 -4
-5 -5 -4 -4 -4 -5 -6 -6 -6 -7 -7 -7 -7 -6 -6 -7 -6 -6 -6 -6 -6 -6 -6 -7 -7 -7 -7 -6 -6 -6 -6 -5 -5 -5 -5 -5 -5 -5 -5 -5 -5 -5 -4 -4 -4 -4 -4 -4 -4
-4 -4 -4 -4 -5 -5 -6 -6 -6 -6 -6 -7 -7 -7 -7 -6 -6 -7 -6 -6 -6 -6 -6 -6 -7 -7 -7 -7 -6 -6 -6 -6 -5 -5 -5 -5 -5 -5 -5 -5 -5 -5 -5 -5 -5 -4 -4 -4 -4
-5 -4 -4 -5 -5 -5 -5 -5 -6 -6 -6 -6 -7 -7 -7 -7 -7 -7 -7 -6 -6 -6 -6 -7 -6 -6 -7 -7 -7 -7 -7 -6 -6 -6 -6 -6 -6 -6 -6 -6 -6 -6 -5 -5 -5 -5 -5 -5 -5
-4 -4 -4 -4 -5 -5 -5 -5 -6 -5 -6 -6 -7 -7 -8 -8 -7 -7 -7 -7 -7 -6 -5 -6 -6 -6 -6 -7 -8 -7 -7 -7 -6 -6 -6 -6 -6 -6 -6 -6 -6 -6 -6 -6 -6 -5 -5 -5 -5
-4 -4 -5 -4 -4 -5 -5 -6 -5 -5 -5 -6 -6 -7 -8 -7 -8 -8 -7 -7 -7 -7 -7 -6 -6 -6 -7 -7 -7 -8 -7 -7 -7 -7 -7 -6 -6 -6 -6 -6 -6 -6 -6 -6 -6 -6 -5 -5 -5
-5 -5 -5 -5 -5 -5 -5 -5 -6 -6 -6 -6 -6 -6 -7 -7 -7 -7 -7 -7 -7 -7 -7 -7 -6 -6 -6 -6 -7 -6 -7 -8 -8 -8 -8 -7 -7 -7 -7 -7 -7 -7 -6 -6 -7 -6 -6 -5 -5
-6 -6 -5 -5 -5 -6 -6 -5 -5 -6 -6 -6 -6 -6 -7 -7 -7 -7 -7 -7 -7 -7 -7 -7 -7 -6 -6 -6 -6 -6 -6 -8 -8 -8 -8 -8 -8 -7 -7 -7 -7 -7 -7 -7 -7 -7 -6 -6 -6
-6 -6 -6 -6 -6 -6 -6 -6 -5 -6 -6 -6 -6 -7 -7 -7 -7 -7 -7 -7 -7 -7 -7 -7 -7 -7 -7 -7 -6 -6 -6 -6 -7 -8 -8 -8 -8 -8 -7 -7 -7 -8 -7 -7 -8 -7 -6 -6 -6
-7 -7 -7 -7 -7 -6 -6 -6 -6 -6 -6 -6 -6 -7 -7 -8 -7 -7 -7 -7 -7 -8 -8 -7 -7 -8 -7 -7 -7 -6 -6 -6 -7 -7 -8 -8 -8 -8 -8 -8 -8 -8 -8 -8 -8 -8 -7 -6 -6
-8 -8 -8 -8 -8 -8 -7 -6 -7 -6 -6 -7 -7 -7 -7 -7 -9 -8 -7 -7 -8 -8 -8 -8 -8 -8 -8 -7 -7 -7 -6 -7 -7 -7 -8 -8 -8 -9 -8 -9 -8 -8 -8 -8 -9 -8 -8 -7 -7
-10 -9 -9 -9 -10 -10 -9 -7 -8 -8 -8 -7 -8 -8 -8 -7 -8 -10 -9 -8 -8 -8 -9 -10 -10 -9 -9 -9 -8 -8 -7 -7 -7 -7 -7 -8 -8 -8 -9 -9 -9 -9 -9 -9 -9 -9 -8 -8 -7
-10 -10 -10 -10 -11 -12 -10 -8 -9 -9 -10 -9 -9 -9 -9 -9 -8 -9 -11 -10 -9 -9 -9 -9 -10 -10 -10 -10 -9 -8 -8 -8 -7 -7 -8 -8 -8 -8 -9 -9 -9 -9 -9 -9 -9 -9 -9 -8 -7
-12 -12 -12 -12 -12 -13 -12 -10 -10 -12 -12 -12 -12 -12 -11 -10 -9 -10 -11 -11 -11 -10 -10 -12 -11 -11 -11 -10 -10 -10 -9 -8 -8 -8 -8 -7 -8 -8 -9 -9 -8 -8 -9 -9 -9 -9 -9 -9 -8
-13 -13 -13 -13 -13 -14 -14 -14 -14 -14 -14 -15 -14 -13 -13 -12 -12 -11 -12 -12 -11 -11 -11 -11 -12 -12 -11 -11 -11 -10 -9 -9 -9 -8 -9 -9 -9 -9 -9 -9 -9 -9 -9 -9 -9 -10 -10 -9 -8
-13 -14 -13 -13 -14 -14 -15 -14 -14 -15 -15 -15 -15 -15 -14 -14 -13 -13 -13 -13 -13 -12 -12 -12 -12 -12 -13 -12 -12 -11 -11 -9 -9 -9 -8 -9 -9 -9 -9 -10 -10 -9 -9 -9 -10 -10 -10 -10 -9
-13 -14 -14 -14 -14 -14 -14 -14 -13 -15 -15 -16 -15 -14 -14 -14 -14 -15 -14 -14 -14 -14 -13 -12 -12 -12 -13 -13 -13 -12 -12 -11 -8 -9 -10 -10 -10 -10 -9 -9 -10 -9 -10 -10 -10 -10 -10 -10 -10
-14 -14 -14 -15 -15 -15 -15 -15 -13 -14 -15 -16 -15 -15 -15 -15 -15 -15 -15 -15 -14 -14 -14 -14 -13 -13 -13 -14 -14 -13 -13 -12 -10 -8 -10 -11 -10 -9 -9 -9 -9 -9 -9 -10 -9 -10 -10 -10 -10
-14 -13 -14 -14 -15 -14 -15 -15 -12 -14 -15 -16 -15 -15 -15 -15 -15 -16 -16 -16 -16 -16 -15 -14 -14 -14 -13 -13 -14 -14 -13 -13 -12 -10 -10 -10 -10 -10 -9 -9 -9 -9 -10 -10 -9 -10 -9 -10 -10
-15 -15 -14 -14 -14 -14 -14 -14 -13 -15 -15 -16 -16 -16 -16 -15 -15 -15 -16 -17 -17 -16 -17 -17 -16 -15 -15 -14 -13 -14 -14 -13 -13 -12 -11 -11 -11 -10 -10 -8 -9 -9 -10 -10 -9 -10 -9 -10 -10
-15 -15 -15 -15 -15 -15 -15 -13 -14 -14 -15 -16 -16 -17 -17 -16 -16 -16 -16 -16 -17 -17 -17 -18 -18 -17 -17 -16 -15 -14 -14 -14 -13 -13 -11 -11 -11 -11 -10 -9 -9 -9 -9 -9 -9 -9 -10 -10 -11
-16 -16 -16 -15 -15 -15 -13 -13 -13 -15 -15 -15 -16 -16 -16 -17 -17 -17 -17 -17 -17 -17 -17 -18 -19 -18 -18 -17 -17 -15 -15 -14 -14 -13 -13 -11 -12 -11 -11 -10 -9 -9 -9 -9 -9 -9 -9 -10 -11
-16 -16 -16 -17 -16 -15 -14 -14 -13 -14 -16 -16 -16 -16 -17 -17 -17 -17 -17 -17 -17 -17 -17 -17 -18 -19 -19 -18 -17 -17 -16 -15 -15 -13 -13 -12 -12 -11 -11 -10 -9 -8 -8 -9 -9 -9 -9 -10 -10
-16 -16 -17 -17 -17 -17 -15 -14 -15 -16 -17 -17 -17 -18 -18 -18 -18 -18 -18 -18 -18 -18 -17 -17 -17 -18 -18 -18 -18 -18 -17 -17 -14 -15 -14 -13 -13 -12 -12 -10 -9 -9 -9 -9 -9 -8 -9 -9 -10
-16 -17 -17 -17 -17 -17 -17 -14 -16 -17 -17 -17 -17 -19 -18 -17 -17 -18 -17 -18 -18 -18 -17 -18 -18 -18 -17 -18 -18 -18 -18 -17 -16 -14 -14 -14 -13 -12 -12 -11 -10 -9 -9 -8 -8 -8 -9 -9 -10
Height
5882 5884 5886 5889 5894 5896 5897 5898 5894 5893 5891 5890 5893 5898 5902 5907 5910 5913 5911 5911 5912 5913 5914 5915 5915 5917 5916 5916 5917 5917 5916 5916 5916 5917 5918 5918 5919 5919 5919 5920 5919 5919 5919 5918 5917 5916 5915 5914 5912
5878 5880 5883 5886 5890 5893 5894 5893 5891 5889 5889 5890 5891 5893 5900 5903 5908 5908 5909 5911 5911 5912 5913 5914 5915 5917 5916 5915 5917 5917 5916 5917 5916 5917 5918 5918 5919 5919 5919 5920 5920 5919 5918 5918 5918 5916 5915 5913 5911
5875 5877 5879 5881 5886 5891 5890 5886 5886 5885 5886 5887 5889 5889 5894 5899 5902 5905 5907 5908 5909 5911 5912 5914 5915 5916 5916 5916 5916 5916 5916 5916 5916 5917 5917 5918 5918 5919 5919 5919 5920 5919 5919 5918 5918 5917 5916 5913 5911
5872 5874 5876 5878 5884 5885 5886 5883 5884 5881 5883 5884 5886 5888 5892 5889 5895 5898 5902 5905 5907 5909 5911 5911 5913 5914 5914 5915 5915 5916 5915 5915 5916 5916 5917 5918 5918 5919 5919 5919 5919 5919 5918 5918 5917 5916 5915 5914 5912
5868 5870 5871 5876 5880 5882 5882 5880 5879 5877 5880 5880 5882 5885 5886 5887 5889 5893 5897 5900 5903 5905 5908 5909 5911 5913 5914 5914 5914 5915 5915 5915 5915 5916 5916 5917 5918 5919 5918 5918 5918 5918 5918 5917 5917 5916 5915 5913 5911
5864 5867 5867 5871 5875 5877 5876 5874 5875 5875 5875 5876 5878 5881 5882 5884 5886 5889 5893 5896 5898 5899 5901 5904 5907 5909 5911 5912 5913 5913 5913 5913 5914 5914 5915 5916 5917 5917 5917 5917 5917 5916 5916 5916 5915 5914 5913 5912 5910
5859 5861 5862 5864 5869 5871 5872 5870 5869 5870 5870 5869 5871 5874 5875 5877 5880 5883 5885 5889 5893 5894 5895 5897 5901 5904 5906 5907 5909 5911 5911 5911 5912 5912 5914 5914 5915 5915 5915 5915 5915 5915 5914 5914 5913 5912 5911 5910 5908
5852 5854 5855 5857 5860 5864 5865 5863 5862 5861 5863 5862 5861 5864 5867 5871 5873 5875 5878 5881 5885 5887 5889 5890 5893 5896 5900 5904 5905 5907 5909 5909 5909 5910 5911 5912 5913 5913 5913 5913 5913 5913 5912 5912 5910 5909 5909 5908 5906
5845 5846 5848 5849 5851 5854 5855 5855 5854 5854 5856 5856 5855 5857 5860 5863 5867 5869 5869 5873 5877 5882 5885 5885 5887 5888 5892 5897 5900 5903 5906 5907 5906 5907 5908 5909 5910 5911 5911 5911 5911 5910 5909 5909 5908 5906 5905 5905 5903
5837 5839 5839 5839 5840 5844 5847 5848 5849 5848 5848 5849 5850 5850 5851 5855 5859 5861 5862 5865 5868 5875 5880 5881 5882 5885 5885 5888 5892 5897 5901 5904 5904 5904 5905 5906 5907 5908 5909 5909 5909 5908 5907 5906 5905 5904 5903 5901 5900
5829 5830 5830 5829 5830 5831 5834 5836 5837 5838 5839 5838 5841 5842 5843 5847 5850 5853 5854 5855 5858 5863 5870 5875 5877 5878 5880 5883 5884 5889 5894 5897 5900 5901 5901 5902 5904 5905 5905 5906 5905 5905 5904 5903 5902 5901 5900 5899 5897
5820 5820 5820 5820 5818 5819 5821 5823 5825 5825 5826 5826 5826 5829 5830 5832 5837 5840 5844 5847 5849 5852 5857 5864 5870 5871 5874 5877 5880 5881 5885 5889 5892 5894 5895 5898 5900 5900 5902 5902 5902 5902 5901 5901 5899 5898 5897 5896 5895
5810 5809 5809 5809 5808 5807 5807 5808 5812 5815 5814 5814 5814 5816 5819 5817 5821 5825 5829 5832 5836 5841 5846 5849 5860 5865 5868 5870 5872 5875 5877 5880 5884 5887 5890 5892 5894 5896 5898 5899 5899 5899 5898 5898 5896 5895 5894 5893 5891
5800 5799 5799 5798 5795 5791 5792 5794 5796 5801 5802 5803 5802 5802 5805 5808 5805 5810 5814 5820 5822 5826 5833 5836 5842 5853 5858 5862 5864 5867 5869 5873 5876 5880 5884 5887 5890 5892 5894 5896 5896 5895 5895 5894 5892 5891 5890 5889 5887
5788 5788 5787 5785 5782 5780 5777 5782 5783 5782 5787 5789 5789 5789 5792 5792 5796 5794 5798 5804 5808 5813 5818 5824 5830 5838 5845 5850 5854 5857 5861 5865 5868 5872 5876 5880 5882 5885 5888 5890 5891 5891 5891 5890 5888 5887 5886 5885 5884
5773 5773 5772 5772 5769 5765 5763 5769 5769 5767 5767 5772 5775 5775 5777 5781 5782 5786 5784 5786 5793 5798 5804 5811 5814 5822 5830 5838 5845 5849 5853 5856 5859 5862 5867 5871 5875 5878 5880 5883 5885 5886 5887 5886 5884 5883 5881 5880 5880
5758 5754 5754 5753 5752 5746 5743 5749 5751 5751 5748 5750 5754 5757 5760 5763 5768 5771 5773 5776 5774 5782 5791 5796 5801 5808 5816 5825 5832 5838 5843 5848 5851 5854 5859 5863 5866 5869 5873 5875 5877 5880 5882 5881 5879 5878 5877 5875 5874
5746 5742 5737 5734 5734 5724 5721 5724 5726 5730 5727 5726 5729 5735 5741 5746 5754 5753 5757 5760 5764 5764 5769 5778 5786 5794 5801 5809 5819 5825 5830 5837 5843 5847 5850 5854 5858 5861 5866 5868 5870 5874 5876 5876 5874 5873 5872 5871 5869
5730 5728 5725 5722 5714 5701 5705 5703 5713 5709 5708 5709 5711 5714 5718 5726 5735 5737 5739 5742 5747 5750 5756 5758 5768 5775 5782 5791 5803 5812 5821 5826 5833 5838 5843 5846 5848 5853 5858 5861 5863 5866 5869 5869 5868 5867 5867 5866 5864
5720 5717 5715 5715 5705 5695 5694 5696 5701 5695 5695 5696 5696 5697 5699 5706 5713 5719 5722 5723 5729 5735 5737 5744 5749 5757 5766 5772 5782 5792 5805 5813 5821 5825 5831 5836 5841 5844 5848 5852 5856 5859 5861 5862 5862 5861 5862 5861 5858
5711 5707 5704 5701 5698 5693 5684 5688 5691 5689 5687 5684 5684 5685 5689 5693 5698 5702 5704 5709 5707 5713 5719 5725 5733 5741 5747 5758 5764 5773 5783 5794 5803 5811 5820 5829 5831 5832 5835 5840 5846 5851 5854 5855 5854 5855 5855 5854 5852
5702 5699 5695 5691 5687 5686 5678 5674 5686 5680 5678 5676 5674 5676 5679 5681 5682 5684 5685 5689 5690 5695 5699 5708 5716 5723 5731 5738 5748 5756 5768 5779 5792 5804 5812 5816 5820 5825 5826 5829 5834 5840 5845 5847 5848 5848 5848 5847 5846
5695 5690 5687 5685 5680 5675 5672 5669 5669 5667 5672 5667 5667 5665 5666 5668 5669 5670 5670 5669 5669 5675 5684 5690 5697 5704 5713 5723 5732 5739 5749 5763 5773 5782 5794 5800 5807 5813 5814 5819 5822 5827 5832 5837 5839 5840 5841 5839 5839
5688 5683 5679 5675 5672 5665 5666 5660 5654 5660 5661 5659 5658 5657 5656 5657 5659 5660 5659 5658 5656 5658 5665 5672 5680 5688 5693 5702 5717 5727 5733 5745 5755 5769 5778 5788 5796 5801 5803 5806 5810 5817 5817 5827 5831 5833 5832 5832 5831
5678 5674 5666 5663 5661 5657 5653 5649 5650 5648 5646 5647 5645 5643 5644 5646 5646 5648 5649 5646 5648 5647 5649 5654 5661 5671 5677 5684 5695 5712 5721 5729 5742 5756 5765 5772 5782 5789 5795 5795 5801 5804 5808 5815 5820 5823 5823 5823 5823
5677 5672 5665 5652 5650 5645 5643 5638 5638 5636 5634 5636 5633 5632 5632 5633 5635 5635 5636 5638 5637 5639 5639 5641 5649 5656 5662 5668 5679 5692 5706 5715 5727 5740 5754 5761 5769 5777 5779 5785 5789 5794 5799 5802 5811 5814 5814 5815 5815
5668 5664 5658 5648 5642 5634 5630 5627 5625 5627 5625 5622 5621 5618 5618 5620 5621 5623 5624 5626 5627 5629 5630 5632 5636 5643 5650 5657 5663 5674 5688 5700 5713 5726 5739 5748 5758 5765 5771 5776 5780 5786 5792 5798 5800 5803 5803 5805 5806
5660 5656 5651 5644 5634 5623 5620 5615 5611 5610 5607 5606 5605 5605 5605 5606 5606 5609 5612 5614 5615 5618 5620 5622 5624 5629 5637 5645 5652 5659 5670 5682 5699 5710 5723 5737 5747 5757 5765 5768 5772 5778 5784 5786 5789 5791 5793 5795 5795
5656 5650 5643 5635 5628 5616 5607 5608 5603 5598 5594 5590 5586 5586 5588 5591 5594 5594 5596 5598 5601 5604 5608 5610 5612 5616 5624 5632 5641 5645 5656 5666 5680 5693 5709 5723 5734 5746 5754 5758 5764 5769 5778 5779 5779 5777 5781 5785 5787
5650 5643 5636 5627 5621 5609 5600 5591 5592 5588 5581 5574 5571 5571 5571 5573 5575 5579 5581 5584 5588 5591 5594 5598 5602 5606 5611 5618 5627 5632 5640 5654 5662 5679 5694 5711 5724 5734 5744 5750 5756 5760 5767 5771 5774 5775 5774 5776 5777
Wind_Speed
22 22 21 21 20 19 19 19 20 21 23 25 18 20 19 16 3 10 16 3 7 2 4 7 6 8 3 3 2 2 2 2 1 1 0 1 3 4 5 6 7 9 10 12 14 16 16 18 19
20 23 24 23 22 19 19 25 26 25 25 28 26 24 21 18 11 7 6 6 3 4 6 6 6 8 5 2 1 2 2 2 1 1 1 1 2 4 5 7 8 8 9 11 14 16 18 19 20
20 21 23 25 23 17 20 28 31 30 28 28 29 29 24 20 16 14 9 8 7 6 7 6 8 9 6 4 3 2 1 3 3 1 2 3 1 3 5 7 9 8 9 10 13 17 19 20 20
23 22 22 22 18 22 21 26 28 33 34 32 30 32 27 27 25 21 15 11 13 14 9 7 9 12 10 3 3 4 3 2 3 3 3 4 3 3 5 7 9 10 10 11 12 15 18 20 21
25 24 25 21 19 21 25 29 30 33 38 37 35 34 34 35 34 30 26 22 17 17 16 11 13 16 12 6 1 1 3 3 4 5 5 6 5 6 6 8 10 11 10 11 13 15 17 20 21
28 27 28 25 23 25 28 32 35 35 37 40 39 39 40 39 37 33 30 27 25 22 21 19 16 18 18 16 13 7 4 4 6 7 8 8 8 9 10 10 11 12 11 11 12 13 16 18 21
32 32 31 29 28 29 30 34 36 38 40 43 43 42 43 43 41 38 35 31 26 28 25 23 22 18 19 20 17 15 10 8 9 10 10 11 12 12 13 13 13 13 13 12 12 13 15 16 19
38 38 37 37 37 35 36 39 40 42 43 45 48 49 48 46 45 44 41 37 33 30 30 30 26 24 21 20 19 17 14 12 11 13 13 13 13 14 15 16 16 15 15 14 13 14 15 17 18
43 43 42 44 44 43 43 45 45 46 46 47 49 51 52 50 47 47 47 43 39 33 34 33 32 28 25 24 21 18 15 14 13 14 15 15 16 16 16 16 16 17 17 16 15 15 15 16 18
42 43 44 46 46 46 46 48 48 49 50 51 50 51 56 55 53 52 52 50 48 42 35 36 34 33 33 30 26 23 18 16 16 17 17 16 17 18 18 17 18 18 17 17 17 16 16 16 17
41 41 42 45 47 47 45 44 48 51 52 54 55 55 55 57 60 58 58 58 55 52 44 40 40 38 36 34 34 28 24 22 21 21 20 19 18 20 18 17 18 18 18 17 16 16 17 18 18
42 43 45 47 50 50 49 49 49 51 52 54 56 58 61 61 60 61 62 63 61 59 55 48 42 46 40 38 37 34 34 29 26 25 25 23 22 22 19 17 19 20 20 17 16 16 18 19 21
43 45 47 49 51 53 54 54 53 54 56 58 58 59 60 65 66 66 65 65 65 63 60 59 47 46 47 45 41 41 38 39 33 31 29 27 26 25 22 18 19 21 20 19 17 17 19 19 22
47 48 49 50 53 57 58 57 57 56 59 62 63 64 64 64 68 69 70 70 70 69 66 64 60 51 51 52 50 46 42 39 33 36 34 32 31 29 25 21 20 21 21 19 18 19 21 21 21
50 51 52 54 58 60 64 62 61 61 58 59 63 68 69 65 68 72 72 71 73 73 72 70 66 60 56 54 52 52 47 42 42 44 38 39 37 32 29 26 24 23 22 20 20 20 22 22 22
54 55 57 57 59 64 67 66 65 67 68 64 62 63 66 70 67 70 76 76 74 74 74 72 72 68 62 59 52 52 52 51 49 48 47 46 42 36 34 30 29 26 22 22 21 22 24 23 22
49 57 57 58 54 60 65 69 68 68 70 70 67 66 66 67 66 65 73 77 80 77 75 74 73 72 69 62 56 52 51 52 54 52 50 49 47 44 39 36 33 28 23 23 24 25 28 26 22
49 50 52 55 51 56 64 70 70 67 69 71 72 70 68 67 67 68 69 77 79 82 80 78 77 76 74 70 64 62 61 57 54 53 53 51 51 49 44 40 36 30 25 26 26 26 30 27 24
41 39 39 35 40 49 53 65 64 62 64 65 65 65 68 69 68 67 67 76 84 85 85 81 80 78 77 77 73 69 63 59 56 54 52 52 52 49 46 44 40 34 28 29 28 26 30 29 26
38 39 36 32 32 38 37 33 30 40 43 44 48 53 56 63 65 69 66 67 78 89 91 89 83 80 79 77 75 75 68 65 58 58 55 55 52 50 49 48 43 38 32 30 29 27 30 31 28
39 38 37 37 33 34 39 33 25 31 35 41 44 46 46 45 46 52 60 64 68 78 91 94 92 85 77 76 74 76 77 72 68 63 57 54 55 54 53 52 48 41 37 33 32 28 30 32 30
36 34 36 38 40 38 44 44 17 32 34 37 39 39 41 44 46 43 51 64 65 69 77 85 91 89 82 75 77 77 77 78 70 65 58 55 55 55 58 55 54 45 42 37 34 30 31 33 32
34 35 34 32 37 41 42 45 33 32 23 27 30 32 33 38 37 40 36 40 66 73 71 74 76 84 88 77 74 75 74 75 80 73 65 59 55 58 60 59 53 53 46 41 39 33 34 34 34
36 33 34 34 35 41 35 40 34 28 30 30 31 34 34 38 35 28 29 30 37 61 75 75 73 72 78 88 79 72 73 73 77 78 74 67 61 55 55 59 62 57 44 45 43 37 41 35 35
39 38 41 42 42 41 40 40 35 35 32 29 36 40 41 42 44 37 32 32 30 34 57 67 74 72 72 74 84 78 70 68 70 75 70 68 65 56 61 56 57 58 53 47 45 40 45 36 36
34 34 38 49 47 46 42 41 38 37 36 31 38 44 47 47 46 40 38 34 34 32 35 59 64 66 70 68 70 83 79 70 67 66 71 67 63 62 59 69 52 48 52 38 45 46 41 37 37
32 35 39 44 45 48 44 42 41 33 33 39 41 44 44 42 42 42 41 40 38 36 35 39 60 61 63 65 65 67 86 80 70 68 67 70 62 65 63 56 57 44 38 50 49 50 53 38 39
35 37 39 41 46 51 49 47 44 46 44 38 38 39 40 41 39 39 40 42 42 37 37 39 38 50 63 57 60 62 57 89 77 68 70 69 64 59 55 54 53 50 41 54 51 55 47 38 43
33 36 37 41 44 51 53 45 48 47 48 48 46 43 42 39 38 40 42 42 42 43 41 41 39 40 54 56 56 58 58 59 88 77 66 69 66 60 54 52 51 50 52 56 53 58 53 41 49
31 31 36 40 44 49 51 50 49 48 49 48 44 41 44 39 44 42 47 44 42 40 40 42 45 47 43 57 61 57 59 57 61 88 70 69 68 63 56 53 52 55 52 55 47 51 53 47 48
Wind_Direction
223 222 219 219 215 208 204 206 213 231 242 254 258 252 239 235 239 146 170 208 213 194 340 346 326 303 324 18 11 25 50 86 104 233 262 345 14 36 9 1 7 5 8 4 358 359 4 7 9
222 226 225 224 219 204 203 202 209 225 232 248 258 260 263 261 226 172 183 211 229 309 337 338 324 290 287 326 331 343 42 17 44 335 299 103 52 353 353 348 352 354 358 2 358 357 1 9 10
233 228 228 229 225 210 210 217 209 223 233 241 250 259 260 260 257 228 209 217 224 250 275 301 305 295 273 281 281 297 353 29 11 321 228 185 239 315 333 339 338 338 342 353 351 355 359 5 4
237 236 234 230 215 215 213 234 219 220 232 240 243 251 259 253 248 239 239 245 261 259 253 261 275 273 264 258 254 269 267 305 341 332 265 242 262 299 317 326 332 331 333 338 345 348 354 358 360
240 239 240 233 219 216 219 226 234 235 233 237 241 246 249 256 257 255 254 248 242 259 248 238 256 265 263 248 212 31 315 287 291 288 280 269 275 283 288 307 319 318 317 324 333 343 348 353 355
241 244 246 241 225 223 226 225 231 234 237 243 247 250 254 256 262 265 260 252 251 248 241 236 238 252 260 264 261 266 291 291 279 280 272 265 266 268 277 291 304 304 305 314 322 333 340 350 349
241 243 246 246 233 227 229 234 233 232 233 235 243 250 252 254 258 260 259 256 250 238 233 230 230 237 249 253 254 260 264 271 269 267 270 267 266 270 276 288 297 299 303 308 314 322 333 341 342
242 241 242 243 238 231 232 235 236 237 235 234 238 242 249 251 256 257 259 255 253 235 232 231 224 228 238 251 250 253 257 258 256 259 260 261 267 273 279 287 290 293 301 305 307 315 324 330 337
248 248 248 249 247 241 238 235 237 238 238 238 236 239 243 248 250 252 256 257 255 248 234 232 232 224 227 238 246 244 243 250 254 255 257 261 265 276 286 289 288 293 299 303 301 308 314 322 327
257 255 255 255 254 250 247 243 242 244 244 242 239 239 240 242 246 252 255 255 255 250 243 240 234 235 227 230 230 236 232 242 248 255 259 263 268 274 279 283 288 290 294 299 298 304 308 314 318
259 259 258 258 256 254 250 248 247 247 249 249 244 243 244 241 242 245 251 256 258 257 251 241 242 233 226 230 228 226 235 233 241 248 255 259 265 268 271 276 281 286 289 292 299 304 303 308 310
262 260 259 258 259 257 253 248 247 247 246 246 246 242 243 245 243 244 246 249 253 256 257 250 241 243 243 233 236 235 220 226 235 243 248 253 258 262 265 271 277 279 284 290 301 303 302 305 307
262 262 262 261 261 260 257 254 248 245 247 246 245 245 242 245 245 243 244 246 249 250 253 255 243 236 244 243 240 236 239 226 220 238 243 248 253 257 260 266 272 276 280 286 296 299 298 303 307
266 266 265 264 262 261 258 257 256 251 245 246 247 246 244 241 246 245 244 243 247 249 250 251 252 242 241 244 239 232 237 242 231 235 240 248 249 254 258 261 265 273 277 280 290 294 295 303 307
268 267 267 264 263 263 262 260 258 257 252 247 247 247 246 244 241 247 246 245 245 246 248 249 251 248 246 242 243 234 232 236 234 242 239 240 243 245 251 256 262 267 272 275 283 287 289 296 303
277 275 271 270 269 267 265 262 261 260 258 255 251 249 248 246 244 244 249 250 245 245 246 246 249 247 246 245 241 242 235 232 231 235 234 238 243 244 243 248 255 262 267 269 276 285 288 293 303
282 281 279 277 272 267 267 265 264 262 262 260 256 251 246 246 244 239 244 247 251 248 244 244 245 248 247 239 237 240 242 240 236 235 238 240 243 243 243 243 248 256 264 265 270 278 285 291 298
287 287 287 286 276 266 264 263 262 258 258 257 256 254 248 244 245 243 234 242 244 249 250 247 245 244 245 244 236 233 237 241 241 238 239 234 240 245 242 244 245 249 257 261 268 276 284 290 298
294 293 295 297 287 275 263 263 262 261 258 257 257 255 251 246 240 240 240 230 236 242 243 247 246 245 246 246 243 240 239 240 241 243 240 240 239 242 243 245 246 247 248 257 264 271 280 288 293
296 297 297 297 296 295 295 289 278 269 264 262 258 256 254 250 247 242 238 238 232 231 239 241 243 244 245 246 246 246 238 235 237 239 242 242 244 240 240 245 247 245 243 253 257 265 278 285 290
296 296 295 295 287 289 287 294 285 273 267 263 264 262 263 264 261 255 247 242 239 236 231 235 239 240 240 240 242 245 247 238 230 233 238 241 244 243 237 237 243 243 243 248 252 263 271 281 287
301 298 300 299 297 295 289 291 273 273 269 271 274 275 266 266 267 255 253 246 244 238 238 234 234 236 237 235 237 241 244 247 239 236 239 242 243 250 250 241 235 239 242 246 250 258 267 275 281
305 307 307 305 300 295 292 296 285 280 272 269 278 275 272 276 275 261 260 248 240 240 238 238 236 236 233 233 232 234 236 241 245 242 240 242 243 244 244 245 240 231 234 240 247 252 262 269 277
305 307 309 303 301 293 300 290 286 289 282 274 266 265 264 274 273 270 264 268 256 241 235 235 236 236 236 234 229 231 235 234 241 243 245 246 247 245 241 242 244 235 225 234 246 247 255 266 275
309 315 311 308 308 304 297 287 291 292 281 263 263 258 262 268 273 273 271 271 258 253 244 236 233 233 234 234 233 226 230 232 234 241 241 244 245 244 250 233 241 238 225 231 242 246 249 258 268
303 306 307 306 308 304 299 296 297 288 283 269 256 255 260 263 265 266 268 264 259 261 255 244 241 236 236 236 232 233 225 230 229 229 237 237 240 239 248 248 251 225 230 231 240 248 246 254 263
308 310 311 309 309 306 304 301 295 294 288 280 271 262 259 260 256 259 261 263 261 263 257 248 246 241 239 237 238 229 231 225 227 224 227 236 236 234 241 249 252 248 253 241 247 249 247 244 256
309 313 313 312 310 306 303 300 296 303 306 296 280 270 266 260 255 255 255 254 256 261 258 247 247 240 237 239 240 238 228 230 223 225 221 227 233 236 238 243 244 250 244 241 248 246 248 245 251
310 315 314 313 312 307 304 298 299 302 302 296 288 280 276 266 257 248 251 253 247 253 256 250 242 236 234 239 236 239 234 234 226 223 220 220 227 232 229 236 237 236 238 252 258 247 243 245 251
312 319 318 316 315 308 308 301 300 298 295 290 282 278 272 272 257 244 241 245 246 251 249 247 244 243 236 231 235 237 238 230 235 226 218 219 224 227 229 232 236 238 240 252 256 258 250 244 247